User: anonymous   Login
Location: Unspecified
(0.0000°N, 0.0000°E)
Time: 19:43:00
(UTC+00:00)
Language:

Cubesat XI-IV - Orbit

View from above orbital plane
View from above orbital plane
View from above satellite
View from above satellite

Ground track
Ground track

The orbit data is extracted from the following two-line orbital elements,

1 27848U 03031J   19340.58288847  .00000040  00000-0  38219-4 0  9994
2 27848  98.6913 346.7737 0008694 268.5533  91.4649 14.21800319852426
Epoch (UTC): 06 December 2019 13:59:21
Eccentricity: 0.0008694
inclination: 98.6913°
perigee height: 813 km
apogee height: 825 km
right ascension of ascending node: 346.7737°
argument of perigee: 268.5533°
revolutions per day: 14.21800319
mean anomaly at epoch: 91.4649°
orbit number at epoch: 85242

The dashed part of the orbit path shows where the satellite is in the earth's shadow,  

DLR